Regional Weather Roundup
Issued by NWS

Home | Current Version | Previous Version | Graphics & Text | Print | Product List | Glossary On
Versions: 1 2 3 4 5 6 7 8 9 10 11 12 13 14 15 16 17 18 19 20 21 22 23 24 25 26 27 28 29 30 31 32 33 34 35 36 37 38 39 40 41 42 43 44 45 46 47 48 49 50
520
ASUS43 KOAX 112010
RWRNE

WEATHER ROUNDUP FOR NEBRASKA
NATIONAL WEATHER SERVICE OMAHA NE
200 PM CST MON DEC 11 2017

NOTES: SATELLITE DATA IS BEING USED TO AUGMENT CLOUD COVER ABOVE
       12000 FEET.
       "FAIR" INDICATES FEW OR NO CLOUDS BELOW 12,000 FEET WITH NO
       SIGNIFICANT WEATHER AND/OR OBSTRUCTIONS TO VISIBILITY.


NEZ001>004-019>022-054>056-112100-
NEBRASKA PANHANDLE

CITY           SKY/WX    TMP DP  RH WIND       PRES   REMARKS
SCOTTSBLUFF    CLOUDY    52  12  20 NW26G38   30.33F
ALLIANCE       CLOUDY    47  11  23 NW29G37   30.27S
CHADRON        CLOUDY    48  15  26 NW26G33   30.31R
GORDON         CLOUDY    41  24  50 N24G33    30.27R
KIMBALL        SUNNY     50  10  20 NW29G41   30.32F
SIDNEY         SUNNY     50  10  20 NW35G46   30.30R
$$

NEZ057>060-069>072-079>082-112100-
SOUTHWEST NEBRASKA

CITY           SKY/WX    TMP DP  RH WIND       PRES   REMARKS
NORTH PLATTE   SUNNY     51  23  33 NW25G36   30.23R
IMPERIAL       SUNNY     53   9  17 N26G40    30.23R
LEXINGTON      SUNNY     52  23  32 NW30G38   30.18R
MCCOOK         CLOUDY    55  13  18 NW30G48   30.20R
OGALLALA       SUNNY     52  11  20 N25G36    30.25R
$$

NEZ005>010-023>029-035>040-094-112100-
NORTH CENTRAL NEBRASKA

CITY           SKY/WX    TMP DP  RH WIND       PRES   REMARKS
VALENTINE      CLOUDY    41  28  60 NW22G32   30.24R
AINSWORTH      CLOUDY    39  29  67 N31G37    30.22R WCI  27
BROKEN BOW     CLOUDY    44  27  51 N28G43    30.19R
O`NEILL        CLOUDY    40  33  73 NW31G40   30.16R WCI  29
ORD            CLOUDY    42  30  62 NW26G46   30.16R
THEDFORD       CLOUDY    43  28  54 N25G35    30.24R
$$

NEZ041-046>049-061>064-073>077-083>087-112100-
SOUTH CENTRAL NEBRASKA

CITY           SKY/WX    TMP DP  RH WIND       PRES   REMARKS
GRAND ISLAND   CLOUDY    46  28  49 NW24G35   30.14R
AURORA         CLOUDY    46  28  49 NW31      30.13R
HASTINGS       CLOUDY    46  26  45 NW32G48   30.16R
HEBRON         CLOUDY    50  26  39 NW25G37   30.11R
HOLDREGE       SUNNY     51  26  36 N18G32    30.16R
KEARNEY        PTSUNNY   48  26  42 N35G40    30.17R
YORK           CLOUDY    46  28  49 NW24G33   30.10R
$$

NEZ011>018-030>034-042>045-112100-
NORTHEAST NEBRASKA

CITY           SKY/WX    TMP DP  RH WIND       PRES   REMARKS
NORFOLK        CLOUDY    42  33  70 NW26G38   30.07R
ALBION         CLOUDY    44  31  59 N31G41    30.11R
BLAIR          CLOUDY    45  33  62 NW24G40   30.01R
COLUMBUS       CLOUDY    44  30  57 NW30G36   30.08S
FREMONT        CLOUDY    45  32  60 NW26G41   30.05R
TEKAMAH        CLOUDY    45  32  60 NW32G45   30.02R
WAYNE          LGT RAIN  40  37  90 NW21G32   30.06R WCI  30
$$

NEZ050>053-065>068-078-088>093-112100-
SOUTHEAST NEBRASKA

CITY           SKY/WX    TMP DP  RH WIND       PRES   REMARKS
LINCOLN        CLOUDY    48  30  49 NW32G44   30.09R
OMAHA EPPLEY   CLOUDY    47  32  56 NW25G38   30.00R
BEATRICE       CLOUDY    49  29  46 NW29G36   30.08R
FALLS CITY     CLOUDY    51  28  41 NW24G38   30.01R
NEBRASKA CITY  CLOUDY    49  32  52 NW28G43   30.02R
PLATTSMOUTH    CLOUDY    47  33  59 NW25G36   30.01R
$$

NEZ044-045-051>053-067-112100-
OMAHA AREA

CITY           SKY/WX    TMP DP  RH WIND       PRES   REMARKS
OMAHA EPPLEY   CLOUDY    47  32  56 NW25G38   30.00R
BLAIR          CLOUDY    45  33  62 NW24G40   30.01R
FREMONT        CLOUDY    45  32  60 NW26G41   30.05R
MILLARD        CLOUDY    48  33  57 NW28G37   30.02R
OFFUTT AFB     CLOUDY    47  32  55 NW24G36   30.01R
PLATTSMOUTH    CLOUDY    47  33  59 NW25G36   30.01R
WAHOO          CLOUDY    46  31  55 NW31G40   30.04R
$$




USA.gov is the U.S. government's official web portal to all federal, state and local government web resources and services.